Tracking 28790 objects as of 19-Apr-2024
HD Live streaming from Space Station
objects crossing your sky now

THORAD AGENA D DEB

Track THORAD AGENA D DEB now!
10-day predictions


NORAD ID: 5389
Int'l Code: 1970-025KU
Perigee: 1,072.6 km
Apogee: 1,379.9 km
Inclination: 99.9 °
Period: 109.8 minutes
Semi major axis: 7597 km
RCS: 0.0212 m2 (small)
Launch date: April 8, 1970
Source: United States (US)
Launch site: AIR FORCE WESTERN TEST RANGE (AFWTR)

Note: This is SATELLITE DEBRIS
Your satellite tracking list
Your tracking list is empty




NASA's NSSDC Master Catalog

Two Line Element Set (TLE):
1  5389U 70025KU  24110.17683532  .00000023  00000-0  16453-3 0  9999
2  5389  99.8884 194.0270 0202269 329.5748  57.9348 13.11050701584603
Source of the keplerian elements: AFSPC